Location: Firdgum
(53.2488°N, 5.5615°E)
Time: 05:19:13
(UTC+00:00)

PAYLOAD B - Pass Details

Date: 08 December 2019
Orbit: 850 x 871 km, 99.1° (Epoch: 21 January)

Event Time Altitude Azimuth Distance (km) Brightness Sun altitude
Rises 05:58:45 0° 14° (NNE) 3,431 7.3 -13.8°
Reaches altitude 10° 06:01:11 10° 9° (N) 2,492 6.5 -13.5°
Maximum altitude 06:06:31 52° 295° (WNW) 1,054 4.3 -12.7°
Drops below altitude 10° 06:11:51 10° 220° (SW) 2,486 6.5 -12.0°
Sets 06:14:15 0° 216° (SW) 3,421 7.2 -11.6°
